Weather History for KMIB - January, 2013

Change the Weather History Date:

Thursday, January 17, 2013

  Actual Average Record
Temperature  
Mean Temperature 15 °F -  
Max Temperature 23 °F 15 °F 37 °F (2000)
Min Temperature 7 °F 0 °F -20 °F (1997)
Degree Days  
Heating Degree Days 50    
Moisture  
Dew Point 10 °F    
Average Humidity 85    
Maximum Humidity 93    
Minimum Humidity 75    
Precipitation  
Precipitation 0.00 in - - ()
Sea Level Pressure  
Sea Level Pressure 30.28 in    
Wind  
Wind Speed 9 mph (East)    
Max Wind Speed 17 mph    
Max Gust Speed -    
Visibility 10 miles    
Events Snow    
Averages and records for this station are not official NWS values.
T = Trace of Precipitation, MM = Missing Value Source: NWS Daily Summary

Daily Weather History Graph

Daily Weather History Graph

Search for Another Location

Airport or City:

Trip Planner

Search our weather history database for the weather conditions in past years. The results will help you decide how hot, cold, wet, or windy it might be!

Date:

Astronomy

Jan. 17, 2013 Rise Set
Actual Time 8:30 AM CST 5:21 PM CST
Civil Twilight 7:54 AM CST 5:56 PM CST
Nautical Twilight 7:16 AM CST 6:35 PM CST
Astronomical Twilight 6:38 AM CST 7:12 PM CST
Moon 11:02 AM CST (1/17) No Moon Set
Length of Visible Light 10h 01m
Length of Day
8h 51m
Waxing Crescent, 38% of the Moon is Illuminated
Jan 17
Waxing Crescent
Jan 18
First Quarter
Jan 26
Full
Feb 3
Last Quarter
Feb 10
New

Hourly Weather History & Observations

Time (CST) Temp. Windchill Dew Point Humidity Pressure Visibility Wind Dir Wind Speed Gust Speed Precip Events Conditions
1:10 AM 21.2 °F 16.4 °F 17.6 °F 86% 30.25 in 10.0 mi WNW 3.5 mph - N/A   Overcast
1:55 AM 23.0 °F 13.9 °F 20.1 °F 89% 30.27 in 10.0 mi NNW 8.1 mph - N/A   Overcast
2:55 AM 23.2 °F 12.6 °F 20.3 °F 89% 30.30 in 10.0 mi North 10.4 mph - N/A   Overcast
3:08 AM 21.2 °F 8.9 °F 19.4 °F 93% 30.32 in 10.0 mi North 12.7 mph - N/A   Overcast
3:55 AM 18.1 °F 7.1 °F 14.5 °F 86% 30.33 in 10.0 mi North 9.2 mph - 0.00 in   Overcast
4:04 AM 17.6 °F 8.2 °F 14.0 °F 86% 30.33 in 10.0 mi North 6.9 mph - N/A   Overcast
4:55 AM 18.9 °F 8.8 °F 15.8 °F 88% 30.36 in 10.0 mi NNW 8.1 mph - N/A   Overcast
5:00 AM 19.4 °F 12.8 °F 15.8 °F 86% 30.36 in 10.0 mi North 4.6 mph - N/A   Overcast
5:37 AM 17.6 °F 2.2 °F 14.0 °F 86% 30.38 in 10.0 mi NNW 17.3 mph - N/A   Overcast
5:52 AM 15.8 °F 2.1 °F 12.2 °F 86% 30.38 in 10.0 mi NNW 12.7 mph - N/A   Scattered Clouds
5:55 AM 15.8 °F 2.7 °F 10.9 °F 81% 30.38 in 10.0 mi NW 11.5 mph - N/A   Scattered Clouds
6:55 AM 10.4 °F 0.8 °F 6.8 °F 85% 30.41 in 10.0 mi WNW 5.8 mph - N/A   Clear
7:55 AM 9.5 °F -3.5 °F 6.1 °F 86% 30.42 in 10.0 mi NW 9.2 mph - N/A   Partly Cloudy
8:55 AM 10.2 °F -1.7 °F 6.6 °F 85% 30.43 in 10.0 mi NW 8.1 mph - N/A   Clear
9:55 AM 8.8 °F 0.4 °F 4.6 °F 83% 30.45 in 10.0 mi NNE 4.6 mph - N/A   Partly Cloudy
10:55 AM 7.7 °F -0.9 °F 2.3 °F 79% 30.45 in 10.0 mi ENE 4.6 mph - N/A   Mostly Cloudy
11:55 AM 7.7 °F -0.9 °F 1.2 °F 75% 30.42 in 10.0 mi SE 4.6 mph - N/A   Mostly Cloudy
12:55 PM 8.1 °F -3.2 °F 1.9 °F 76% 30.41 in 10.0 mi SE 6.9 mph - N/A   Overcast
1:40 PM 8.6 °F -2.6 °F 3.2 °F 79% 30.38 in 4.0 mi SE 6.9 mph - N/A Snow Light Snow
1:55 PM 8.6 °F -3.7 °F 3.4 °F 79% 30.36 in 5.0 mi SE 8.1 mph - 0.00 in Snow Light Snow
2:10 PM 8.6 °F -4.7 °F 3.2 °F 79% 30.35 in 8.0 mi SE 9.2 mph - N/A Snow Light Snow
2:55 PM 8.8 °F -6.1 °F 4.1 °F 81% 30.32 in 10.0 mi ESE 11.5 mph - 0.00 in Snow Light Snow
3:55 PM 9.3 °F -6.1 °F 4.6 °F 81% 30.29 in 10.0 mi SE 12.7 mph - 0.00 in Snow Light Snow
4:55 PM 9.5 °F -7.2 °F 5.4 °F 83% 30.27 in 10.0 mi SE 15.0 mph - 0.00 in   Overcast
5:38 PM 10.4 °F -5.4 °F 5.0 °F 79% 30.26 in 10.0 mi SE 13.8 mph - N/A   Overcast
5:55 PM 10.2 °F -5.0 °F 5.9 °F 83% 30.26 in 10.0 mi SE 12.7 mph - N/A   Overcast
6:55 PM 11.7 °F -3.8 °F 8.4 °F 87% 30.20 in 5.0 mi SE 13.8 mph - 0.00 in Snow Light Snow
7:53 PM 14.0 °F -0.8 °F 10.4 °F 86% 30.15 in 10.0 mi SE 13.8 mph - N/A   Overcast
7:55 PM 13.1 °F -2.6 °F 10.2 °F 88% 30.15 in 10.0 mi SE 15.0 mph - 0.00 in   Overcast
8:55 PM 14.2 °F 0.0 °F 11.7 °F 90% 30.09 in 10.0 mi SE 12.7 mph - N/A   Overcast
9:55 PM 15.3 °F 0.2 °F 13.1 °F 91% 30.01 in 10.0 mi SE 15.0 mph - N/A   Overcast
10:47 PM 15.8 °F 3.4 °F 14.0 °F 93% 29.99 in 10.0 mi ESE 10.4 mph - N/A   Overcast
10:55 PM 15.8 °F 5.1 °F 13.6 °F 91% 29.99 in 10.0 mi East 8.1 mph - N/A   Overcast
11:55 PM 16.5 °F 3.0 °F 14.4 °F 91% 29.95 in 10.0 mi SE 12.7 mph - N/A   Clear